This demonstration page uses our WeatherBlox Daily Observations layout. Learn more.

Left ArrowRight Arrow

34.74481, -87.66753

Hourly Observations for March 10, 2022

Temp ( °F °C ) Dew Point ( °F °C ) Humidity (%) Winds ( mph kmh ) Pressure ( in mb ) Visibility ( mi km ) Precip ( " mm )
12:53 am 00:53 Clear 45 7.2 36 2.2 71 71 NE 7 11 30.02 1017 10 16 0.00 0.00
1:53 am 01:53 Clear 45 7.2 36 2.2 71 71 N 5 7 30.01 1016 10 16 0.00 0.00
2:53 am 02:53 Clear 45 7.2 36 2.2 71 71 N 5 7 30.01 1016 10 16 0.00 0.00
3:53 am 03:53 Clear 44 6.7 36 2.2 73 73 Calm 30.02 1017 10 16 0.00 0.00
4:53 am 04:53 Clear 43 6.1 35 1.7 74 74 N 6 9 30.04 1017 10 16 0.00 0.00
5:53 am 05:53 Clear 42 5.6 35 1.7 76 76 VRB 3 6 30.06 1018 9 14 0.00 0.00
6:53 am 06:53 Sunny 42 5.6 35 1.7 76 76 Calm 30.06 1018 8 13 0.00 0.00
7:53 am 07:53 Sunny 48 8.9 37 2.8 66 66 N 7 11 30.09 1019 10 16 0.00 0.00
8:53 am 08:53 Sunny 51 10.6 39 3.9 64 64 ENE 7 11 30.08 1019 10 16 0.00 0.00
9:53 am 09:53 Sunny 54 12.2 38 3.3 55 55 ENE 6 9 30.08 1019 10 16 0.00 0.00
10:53 am 10:53 Sunny 56 13.3 38 3.3 51 51 E 3 6 30.06 1018 10 16 0.00 0.00
11:53 am 11:53 Sunny 59 15 39 3.9 48 48 NW 5 7 30.04 1017 10 16 0.00 0.00
12:53 pm 12:53 Sunny 61 16.1 38 3.3 43 43 VRB 5 7 30.01 1016 10 16 0.00 0.00
1:53 pm 13:53 Sunny 62 16.7 36 2.2 38 38 Calm 29.99 1016 10 16 0.00 0.00
2:53 pm 14:53 Sunny 64 17.8 36 2.2 35 35 WNW 3 6 29.98 1015 10 16 0.00 0.00
3:53 pm 15:53 Sunny 64 17.8 35 1.7 34 34 ESE 3 6 29.98 1015 10 16 0.00 0.00
4:53 pm 16:53 Sunny 63 17.2 37 2.8 38 38 ESE 5 7 29.98 1015 10 16 0.00 0.00
5:53 pm 17:53 Sunny 60 15.6 36 2.2 41 41 SSE 3 6 29.99 1016 10 16 0.00 0.00
6:53 pm 18:53 Clear 55 12.8 38 3.3 53 53 Calm 30.01 1016 10 16 0.00 0.00
7:53 pm 19:53 Clear 50 10 41 5 71 71 Calm 30.01 1016 10 16 0.00 0.00
8:53 pm 20:53 Clear 47 8.3 40 4.4 77 77 E 3 6 30.02 1017 10 16 0.00 0.00
9:53 pm 21:53 Clear 48 8.9 39 3.9 71 71 Calm 30.02 1017 10 16 0.00 0.00
10:53 pm 22:53 Clear 46 7.8 39 3.9 77 77 Calm 30.01 1016 10 16 0.00 0.00
11:53 pm 23:53 Clear 46 7.8 40 4.4 79 79 Calm 29.99 1016 10 16 0.00 0.00

Powered by AerisWeather